Location: Lewisville
(33.0462°N, 96.9942°W)
Time: 13:07:21
(UTC-05:00)

Hubble Space Telescope - Pass Details

Date: 02 July 2019
Orbit: 536 x 540 km, 28.5° (Epoch: 13 August)

Event Time Altitude Azimuth Distance (km) Brightness Sun altitude
Rises 21:26:10 0° 265° (W) 2,679 5.2 -8.9°
Maximum altitude 21:32:23 38° 188° (S) 820 1.5 -10.0°
Enters shadow 21:35:26 15° 124° (SE) 1,499 2.4 -10.5°
